Location: Bretagne
(43.8474°N, 0.4650°W)
Time: 20:18:05
(UTC+00:00)

Cosmos 292 Rocket - Pass Details

Date: 15 January 2026
Orbit: 663 x 681 km, 74.0° (Epoch: 13 February)

Event Time Altitude Azimuth Distance (km) Brightness Sun altitude
Rises 18:28:45 0° 340° (NNW) 3,009 7.2 -17.4°
Reaches altitude 10° 18:31:03 10° 341° (NNW) 2,092 6.3 -17.8°
Maximum altitude 18:35:46 84° 71° (ENE) 673 3.6 -18.7°
Drops below altitude 10° 18:40:26 10° 159° (SSE) 2,080 6.1 -19.5°
Sets 18:42:43 0° 160° (SSE) 2,990 7.0 -19.9°
